Regional Weather Roundup
Issued by NWS Boston, MA

Home | Current Version | Previous Version | Text Only | Print | Product List | Glossary On
Versions: 1 2 3 4 5 6 7 8 9 10 11 12 13 14 15 16 17 18 19 20 21 22 23 24 25 26 27 28 29 30 31 32 33 34 35 36 37 38 39 40 41 42 43 44 45 46 47 48 49 50
000
ASUS41 KBOX 301810
RWRBOX

REGIONAL WEATHER ROUNDUP
NATIONAL WEATHER SERVICE TAUNTON MA
200 PM EDT TUE AUG 30 2016

NOTE:  "FAIR" INDICATES FEW OR NO CLOUDS BELOW 12,000 FEET WITH NO
SIGNIFICANT WEATHER AND/OR OBSTRUCTIONS TO VISIBILITY.

MAZALL-301900-
EASTERN MASSACHUSETTS

CITY           SKY/WX    TMP DP  RH WIND       PRES   REMARKS
BOSTON         MOSUNNY   74  59  59 SE15      30.10F
6HR MIN TEMP:  68; 6HR MAX TEMP:  77;

BEVERLY        MOSUNNY   78  57  48 SE9       30.09F
LAWRENCE       SUNNY     81  53  37 SW9G17    30.11F
BEDFORD        MOSUNNY   81  49  32 SW13G23   30.08F
BLUE HILL        N/A     80  51  36 VRB7      30.11F
NORWOOD        MOSUNNY   82  55  39 MISG      30.09F
MARSHFIELD     SUNNY     75  63  64 SE10      30.10F
PLYMOUTH       MOSUNNY   81  51  35 SW9       30.10F
TAUNTON        MOSUNNY   81  54  39 S8        30.10F
NEW BEDFORD    PTSUNNY   81  57  43 S12G21    30.10F
$$

MAZALL-301900-
CAPE COD AND THE ISLANDS

CITY           SKY/WX    TMP DP  RH WIND       PRES   REMARKS
FALMOUTH       MOSUNNY   75  55  50 SW6G14    30.14S
HYANNIS        MOSUNNY   76  61  59 S12       30.11F
CHATHAM        SUNNY     79  56  45 VRB7      30.14F
PROVINCETOWN   SUNNY     77  62  59 NE6       30.12F
NANTUCKET      SUNNY     72  58  61 S8        30.13F
MARTHAS VNYRD  CLOUDY    77  61  57 S10G18    30.12F
$$

MAZALL-301900-
CENTRAL AND WESTERN MASSACHUSETTS

CITY           SKY/WX    TMP DP  RH WIND       PRES   REMARKS
WORCESTER      SUNNY     75  52  44 SW9       30.14F
6HR MIN TEMP:  67; 6HR MAX TEMP:  75;

FITCHBURG      SUNNY     81  51  35 W10       30.12F
ORANGE         MOSUNNY   79  50  36 SW9       30.12F
SPRINGFIELD    PTSUNNY   81  56  42 S3        30.10F
WESTFIELD      MOSUNNY   82  56  40 SE12      30.10F
NORTH ADAMS    SUNNY     77  56  48 W6        30.12F
PITTSFIELD     SUNNY     75  53  46 MISG      30.14F
$$

RIZALL-301900-
RHODE ISLAND

CITY           SKY/WX    TMP DP  RH WIND       PRES   REMARKS
PROVIDENCE     PTSUNNY   79  59  50 SE13      30.12F
6HR MIN TEMP:  68; 6HR MAX TEMP:  80;

NEWPORT        MOSUNNY   77  61  57 S14       30.12F
BLOCK ISLAND   MOSUNNY   77  59  53 VRB5      30.14F
SMITHFIELD     PTSUNNY   78  56  46 SW5       30.12F
WESTERLY       SUNNY     77  58  51 S12       30.13F
$$

CTZALL-301900-
CONNECTICUT

CITY           SKY/WX    TMP DP  RH WIND       PRES   REMARKS
BRADLEY INTL   PTSUNNY   81  57  43 SW8       30.11F
6HR MIN TEMP:  62; 6HR MAX TEMP:  81;

HARTFORD       MOSUNNY   83  57  41 VRB3      30.11F
BRIDGEPORT     SUNNY     81  56  42 SW9       30.12F
DANBURY        SUNNY     78  58  49 VRB5      30.14F
GROTON         MOSUNNY   76  62  62 S8        30.12F
NEW HAVEN      SUNNY     79  60  52 S9        30.13F
CHESTER        FAIR      79  57  47 W5G12     30.13F
MERIDEN        MOSUNNY   83  56  39 NW6       30.12F
WILLIMANTIC    MOSUNNY   80  57  45 SW8       30.13F
OXFORD         PTSUNNY   79  55  44 W8        30.17F
$$

MEZ002-015-021-024-NHZ003-005-008-011-012-014-VTZ005-008-301900-
NORTHERN NEW ENGLAND

CITY           SKY/WX    TMP DP  RH WIND       PRES   REMARKS
PORTLAND ME    MOSUNNY   77  50  38 S13       30.08F
6HR MIN TEMP:  62; 6HR MAX TEMP:  80;

BANGOR ME      PTSUNNY   78  51  38 W10       30.04F
CONCORD NH     SUNNY     83  50  31 W9        30.09F
MANCHESTER NH  PTSUNNY   81  49  32 VRB5G16   30.07F
NASHUA NH      MOSUNNY   80  53  39 VRB6      30.09F
PORTSMOUTH NH  PTSUNNY   79  54  41 SE15      30.07F
JAFFREY NH     SUNNY     77  49  37 VRB7      30.14F
KEENE NH       MOSUNNY   77  55  46 VRB3      30.12F
BURLINGTON VT  CLOUDY    77  52  41 VRB6      30.08F
MT. WASHINGTON PTSUNNY   50  45  81 W9          N/A
$$

NYZ052-076-301900-
EASTERN NEW YORK

CITY           SKY/WX    TMP DP  RH WIND       PRES   REMARKS
ALBANY         MOSUNNY   79  56  45 W5        30.11F
6HR MIN TEMP:  62; 6HR MAX TEMP:  80;

NEW YORK CITY  MOSUNNY   85  60  42 SW7       30.11F
6HR MIN TEMP:  73; 6HR MAX TEMP:  86;

$$

ANZALL-301900-
MARINE OBSERVATIONS

STATION/POSITION TIME  TEMP    WIND        PRES    VSBY  WAVE
                       AIR SEA DIR/SP/G                  HT/PER
                 (UTC) (F)     (DEG/KT/KT) (MB)    (MI)  (FT/S)
BOSTON BUOY      1750   69 71  110/  8/ 10 1019.1F         2/11
BUZZARDS BAY     1700   69     200/  5/  6 1021.2F
NANTUCKET SOUND  1750   72 76  210/  8/  8 1019.9F         1/13
MASS BAY-STELLWA 1704   69 68  160/  6/  8 1019.8F  1 7/8  2/12
ISLE OF SHOALS   1700   70     150/ 12/ 12 1019.5F
S OF BLOCK IS    1755      77                N/A           5/12
$$

......................KEY.........................
  SKY/WX - SKY CONDITION/PRESENT WEATHER
  TMP    - TEMPERATURE IN FAHRENHEIT
  DWPT   - DEWPOINT IN FAHRENHEIT
  RH     - RELATIVE HUMIDITY IN PERCENT
  WIND   - DIRECTION AND SPEED IN MPH
  PRES   - MEAN SEA LEVEL PRESSURE IN INCHES OF HG
  WCI    - WIND CHILL INDEX
  VSB    - VISIBILITY IN MILES
  HX     - HEAT INDEX
  TC     - TEMPERATURE IN CELSIUS
  VRB    - VARIABLE WIND DIRECTION
  N/A    - NOT AVAILABLE



USA.gov is the U.S. government's official web portal to all federal, state and local government web resources and services.